Погода в Макарьевке

Россия / Самарская область     52°50′48″N   48°58′27″E
темп.,
°C
ветер,
м/с
пор.,
м/с
влажн.,
%
обл.,
%
осадки,
мм/ч
давл.,
гПа
погр.,
м
23 апреля, пт
пт2301:00+5ююв489395 0.0 1025200
04:00+4юв3595100 0.0 1026114
07:00+5вюв3588100 0.0 1026164
10:00+10всв3467100 0.0 1025526
13:00+13всв4555100 0.0 1023931
16:00+14всв5655100 0.0 10211372
19:00+12всв3462100 0.0 1020129
22:00+9ююв4884100 0.0 1019406
24 апреля, сб
сб2401:00+8в1189100 0.0 101819
04:00+8св2390100 0.3 1016242
07:00+8всв1386100 0.0 1015262
10:00+9ююз1176100 0.1 1014685
13:00+12зюз346097 0.1 10121300
16:00+13ююз4658100 0.2 10111388
19:00+12ююв487099 0.1 1010261
22:00+10ю498379 1.4 1009231
25 апреля, вс
вс2501:00+8зюз71288100 0.3 1009801
04:00+6зюз81170100 0.3 10101031
07:00+6зюз8117582 0.1 1011944
10:00+7зюз10135418 0.4 10121785
13:00+8зюз11145599 0.1 10141844
16:00+9зюз9125691 0.1 10161742
19:00+7з596414 0.1 10171111
22:00+5юз49765 0.1 1019185
26 апреля, пн
пн2601:00+4юз487583 0.0 1019145
04:00+3юз3572100 0.0 102067
07:00+5ю3571100 0.0 1020148
10:00+10ю4647100 0.0 10191240
13:00+12ю4540100 0.0 10171797
16:00+13ююв4540100 0.0 10152031
19:00+11ююв2353100 0.0 101464
22:00+9ююв2260100 0.0 101213
27 апреля, вт
вт2701:00+8ююз3474100 0.0 101172
04:00+6юз228429 0.0 101028
07:00+7ююз248144 0.0 1010135
10:00+12юз455110 0.1 10091444
13:00+14юз6843100 0.0 10092134
16:00+12з885431 0.1 10101757
19:00+10з245093 0.0 1010147
22:00+8зюз356196 0.0 101199